Overview Statistics Trail Chart Weather Telemetry Raw packets
 

This is the latest recevied weather packets stored in our database for station/object K1RFS. If no packets are shown the sender has not sent any weather packets the latest 10 day(s).

<< 9 10 11 12 13 14 15 >>
Time Temp. Humidity Pressure Rain* Wind** Luminosity Snow
1788630209 26.67° C 18% 1003.8 hPa 0 mm - 32 W/m² -
1788629904 26.67° C 18% 1004 hPa 0 mm - 32 W/m² -
1788629600 26.67° C 18% 1004 hPa 0 mm - 31 W/m² -
1788629300 26.67° C 18% 1003.7 hPa 0 mm - 31 W/m² -
1788628998 26.67° C 19% 1003.8 hPa 0 mm - 31 W/m² -
1788628694 26.11° C 18% 1003.8 hPa 0 mm - 31 W/m² -
1788628391 26.11° C 18% 1003.8 hPa 0 mm - 30 W/m² -
1788628087 26.11° C 18% 1003.9 hPa 0 mm - 30 W/m² -
1788627803 26.11° C 19% 1004 hPa 0 mm - 30 W/m² -
1788627481 25° C 25% 1004 hPa 0 mm - 30 W/m² -
1788627178 25° C 29% 1004.4 hPa 0 mm - 30 W/m² -
1788626872 25° C 28% 1004 hPa 0 mm - 30 W/m² -
1788626572 25° C 29% 1003.8 hPa 0 mm - 30 W/m² -
1788626268 24.44° C 28% 1004 hPa 0 mm - 30 W/m² -
1788625973 24.44° C 28% 1004 hPa 0 mm - 30 W/m² -
1788625660 24.44° C 28% 1003.9 hPa 0 mm - 29 W/m² -
1788625359 23.89° C 29% 1003.8 hPa 0 mm - 29 W/m² -
1788625054 24.44° C 30% 1003.8 hPa 0 mm - 29 W/m² -
1788624752 23.89° C 30% 1003.9 hPa 0 mm - 28 W/m² -
1788624452 23.89° C 32% 1004 hPa 0 mm - 28 W/m² -
1788624151 23.89° C 29% 1003.9 hPa 0 mm - 28 W/m² -
1788623846 23.89° C 30% 1003.8 hPa 0 mm - 27 W/m² -
1788623545 23.89° C 29% 1003.7 hPa 0 mm - 27 W/m² -
1788623239 23.33° C 33% 1003.9 hPa 0 mm - 27 W/m² -
1788622935 23.33° C 36% 1004 hPa 0 mm - 27 W/m² -

* Rain latest hour (hover to see other rain measurements)
** Current wind speed in m/s (hover to see current wind gust speed)